| time (UTC) | temp F | wind direction | speed MPH | gust MPH | rain 1hr in | rain 24hr in | rain mn in | humidity % | barometer mb |
| 20260505152116 | 78 | 248 | 6.0 | 12.0 | 0.00 | 0.00 | 0.00 | 40 | 1009.6 |
| 20260505151116 | 78 | 248 | 6.0 | 11.0 | 0.00 | 0.00 | 0.00 | 39 | 1009.6 |
| 20260505150116 | 77 | 248 | 6.0 | 9.0 | 0.00 | 0.00 | 0.00 | 40 | 1009.5 |
| 20260505140117 | 76 | 225 | 1.0 | 3.0 | 0.00 | 0.00 | 0.00 | 46 | 1009.9 |
| 20260505130116 | 70 | 0.0 | 0.0 | 0.00 | 0.00 | 0.00 | 57 | 1010.1 | |
| 20260505124136 | 67 | 315 | 2.0 | 3.0 | 0.00 | 0.00 | 0.00 | 62 | 1010.3 |
| 20260505123136 | 67 | 23 | 1.0 | 2.0 | 0.00 | 0.00 | 0.00 | 62 | 1010.3 |
| 20260505122116 | 66 | 0.0 | 0.0 | 0.00 | 0.00 | 0.00 | 61 | 1010.4 | |
| 20260505121136 | 65 | 0.0 | 0.0 | 0.00 | 0.00 | 0.00 | 63 | 1010.4 | |
| 20260505120116 | 63 | 0.0 | 0.0 | 0.00 | 0.00 | 0.00 | 67 | 1010.3 | |
| 20260505115116 | 62 | 0.0 | 0.0 | 0.00 | 0.00 | 0.00 | 69 | 1010.3 | |
| 20260505114116 | 60 | 0.0 | 0.0 | 0.00 | 0.00 | 0.00 | 73 | 1010.2 | |
| 20260505113117 | 59 | 0.0 | 1.0 | 0.00 | 0.00 | 0.00 | 75 | 1010.1 | |
| 20260505112116 | 58 | 0.0 | 1.0 | 0.00 | 0.00 | 0.00 | 74 | 1009.9 | |
| 20260505111117 | 58 | 0.0 | 0.0 | 0.00 | 0.00 | 0.00 | 74 | 1009.9 | |
| 20260505110116 | 57 | 135 | 1.0 | 2.0 | 0.00 | 0.00 | 0.00 | 77 | 1009.8 |
| 20260505102117 | 52 | 248 | 1.0 | 2.0 | 0.00 | 0.00 | 0.00 | 83 | 1009.6 |
| 20260505101116 | 53 | 0.0 | 1.0 | 0.00 | 0.00 | 0.00 | 81 | 1009.4 | |
| 20260505100116 | 53 | 0.0 | 0.0 | 0.00 | 0.00 | 0.00 | 81 | 1009.4 | |
| 20260505095116 | 53 | 0.0 | 0.0 | 0.00 | 0.00 | 0.00 | 83 | 1009.4 | |
| 20260505094116 | 52 | 0.0 | 0.0 | 0.00 | 0.00 | 0.00 | 82 | 1009.2 | |
| 20260505093116 | 53 | 0.0 | 0.0 | 0.00 | 0.00 | 0.00 | 80 | 1009.2 | |
| 20260505092116 | 54 | 0.0 | 1.0 | 0.00 | 0.00 | 0.00 | 80 | 1009.2 | |
| 20260505091116 | 53 | 0.0 | 0.0 | 0.00 | 0.00 | 0.00 | 81 | 1009.1 | |
| 20260505090116 | 53 | 0.0 | 0.0 | 0.00 | 0.00 | 0.00 | 80 | 1009.2 | |
| 20260505085116 | 54 | 270 | 1.0 | 2.0 | 0.00 | 0.00 | 0.00 | 78 | 1009.1 |
| 20260505084116 | 54 | 293 | 2.0 | 3.0 | 0.00 | 0.00 | 0.00 | 79 | 1009.0 |
| 20260505083116 | 54 | 0.0 | 0.0 | 0.00 | 0.00 | 0.00 | 79 | 1009.0 | |
| 20260505082157 | 54 | 0.0 | 0.0 | 0.00 | 0.00 | 0.00 | 78 | 1009.0 | |
| 20260505081116 | 54 | 0.0 | 0.0 | 0.00 | 0.00 | 0.00 | 78 | 1009.1 | |
| 20260505080117 | 55 | 0.0 | 0.0 | 0.00 | 0.00 | 0.00 | 77 | 1009.0 | |
| 20260505075116 | 55 | 293 | 1.0 | 2.0 | 0.00 | 0.00 | 0.00 | 76 | 1008.9 |
| 20260505074116 | 56 | 0.0 | 0.0 | 0.00 | 0.00 | 0.00 | 75 | 1008.8 | |
| 20260505073137 | 56 | 315 | 1.0 | 2.0 | 0.00 | 0.00 | 0.00 | 74 | 1008.9 |
| 20260505072117 | 57 | 0.0 | 2.0 | 0.00 | 0.00 | 0.00 | 72 | 1008.7 | |
| 20260505071116 | 58 | 0.0 | 0.0 | 0.00 | 0.00 | 0.00 | 70 | 1008.7 | |
| 20260505070117 | 60 | 0.0 | 0.0 | 0.00 | 0.00 | 0.00 | 68 | 1008.7 | |
| 20260505065116 | 60 | 0.0 | 1.0 | 0.00 | 0.00 | 0.00 | 67 | 1008.7 | |
| 20260505064116 | 59 | 0.0 | 0.0 | 0.00 | 0.00 | 0.00 | 68 | 1008.8 | |
| 20260505063117 | 60 | 0.0 | 0.0 | 0.00 | 0.00 | 0.00 | 67 | 1008.9 | |
| 20260505062116 | 60 | 0.0 | 0.0 | 0.00 | 0.00 | 0.00 | 65 | 1008.9 | |
| 20260505061116 | 62 | 0.0 | 0.0 | 0.00 | 0.00 | 0.00 | 63 | 1009.0 | |
| 20260505060116 | 61 | 0.0 | 0.0 | 0.00 | 0.00 | 0.00 | 63 | 1009.0 | |
| 20260505055116 | 62 | 0.0 | 0.0 | 0.00 | 0.00 | 0.00 | 62 | 1009.1 | |
| 20260505054117 | 63 | 0.0 | 0.0 | 0.00 | 0.00 | 0.00 | 60 | 1009.1 | |
| 20260505053157 | 63 | 135 | 1.0 | 3.0 | 0.00 | 0.00 | 0.00 | 61 | 1009.1 |
| 20260505052116 | 64 | 0.0 | 0.0 | 0.00 | 0.00 | 0.00 | 59 | 1009.0 | |
| 20260505051116 | 65 | 0.0 | 0.0 | 0.00 | 0.00 | 0.00 | 56 | 1009.1 | |
| 20260505050116 | 67 | 0.0 | 1.0 | 0.00 | 0.00 | 0.00 | 52 | 1009.1 | |
| 20260505041137 | 68 | 248 | 1.0 | 2.0 | 0.00 | 0.00 | 0.00 | 52 | 1008.7 |
| 20260505040116 | 68 | 68 | 1.0 | 2.0 | 0.00 | 0.00 | 0.00 | 52 | 1008.5 |
| 20260505035136 | 67 | 0.0 | 1.0 | 0.00 | 0.00 | 0.00 | 53 | 1008.4 | |
| 20260505034137 | 66 | 248 | 2.0 | 4.0 | 0.00 | 0.00 | 0.00 | 53 | 1008.5 |
| 20260505033116 | 66 | 0.0 | 1.0 | 0.00 | 0.00 | 0.00 | 53 | 1008.6 | |
| 20260505032116 | 66 | 225 | 2.0 | 4.0 | 0.00 | 0.00 | 0.00 | 53 | 1008.6 |
| 20260505031116 | 66 | 180 | 1.0 | 4.0 | 0.00 | 0.00 | 0.00 | 53 | 1008.6 |
| 20260505030116 | 67 | 0.0 | 1.0 | 0.00 | 0.00 | 0.00 | 51 | 1008.5 | |
| 20260505025117 | 67 | 203 | 1.0 | 3.0 | 0.00 | 0.00 | 0.00 | 51 | 1008.5 |
| 20260505024116 | 67 | 225 | 2.0 | 2.0 | 0.00 | 0.00 | 0.00 | 50 | 1008.4 |
| 20260505023116 | 67 | 225 | 2.0 | 3.0 | 0.00 | 0.00 | 0.00 | 49 | 1008.4 |
| 20260505022116 | 67 | 68 | 1.0 | 2.0 | 0.00 | 0.00 | 0.00 | 49 | 1008.2 |
| 20260505021117 | 67 | 225 | 2.0 | 3.0 | 0.00 | 0.00 | 0.00 | 48 | 1008.2 |
| 20260505020116 | 67 | 225 | 2.0 | 2.0 | 0.00 | 0.00 | 0.00 | 48 | 1008.3 |
| 20260505015116 | 67 | 248 | 2.0 | 3.0 | 0.00 | 0.00 | 0.00 | 48 | 1008.1 |
| 20260505014117 | 67 | 203 | 2.0 | 3.0 | 0.00 | 0.00 | 0.00 | 47 | 1008.0 |
| 20260505013117 | 67 | 180 | 1.0 | 2.0 | 0.00 | 0.00 | 0.00 | 47 | 1008.1 |
| 20260505012117 | 68 | 135 | 2.0 | 4.0 | 0.00 | 0.00 | 0.00 | 46 | 1008.0 |
| 20260505011117 | 68 | 203 | 2.0 | 3.0 | 0.00 | 0.00 | 0.00 | 45 | 1007.8 |
| 20260505010116 | 68 | 158 | 2.0 | 3.0 | 0.00 | 0.00 | 0.00 | 45 | 1008.0 |
| 20260505005138 | 69 | 180 | 1.0 | 2.0 | 0.00 | 0.00 | 0.00 | 45 | 1007.9 |
| 20260505004117 | 69 | 225 | 1.0 | 3.0 | 0.00 | 0.00 | 0.00 | 44 | 1007.8 |
| 20260505003137 | 69 | 135 | 3.0 | 6.0 | 0.00 | 0.00 | 0.00 | 43 | 1007.6 |
| 20260505002116 | 69 | 135 | 2.0 | 3.0 | 0.00 | 0.00 | 0.00 | 43 | 1007.6 |
| 20260505001116 | 69 | 225 | 1.0 | 3.0 | 0.00 | 0.00 | 0.00 | 43 | 1007.5 |
| 20260505000116 | 70 | 135 | 1.0 | 3.0 | 0.00 | 0.00 | 0.00 | 43 | 1007.5 |
| 20260504235116 | 70 | 180 | 1.0 | 3.0 | 0.00 | 0.00 | 0.00 | 43 | 1007.5 |
| 20260504234116 | 71 | 225 | 1.0 | 3.0 | 0.00 | 0.00 | 0.00 | 42 | 1007.3 |
| 20260504233136 | 71 | 113 | 1.0 | 4.0 | 0.00 | 0.00 | 0.00 | 41 | 1007.3 |
| 20260504232117 | 72 | 135 | 3.0 | 4.0 | 0.00 | 0.00 | 0.00 | 39 | 1007.3 |
| 20260504231116 | 72 | 158 | 1.0 | 2.0 | 0.00 | 0.00 | 0.00 | 40 | 1007.3 |
| 20260504230116 | 73 | 180 | 2.0 | 4.0 | 0.00 | 0.00 | 0.00 | 38 | 1007.3 |
| 20260504225137 | 73 | 135 | 2.0 | 3.0 | 0.00 | 0.00 | 0.00 | 38 | 1007.5 |
| 20260504224116 | 73 | 135 | 3.0 | 8.0 | 0.00 | 0.00 | 0.00 | 38 | 1007.5 |
| 20260504223117 | 73 | 135 | 3.0 | 8.0 | 0.00 | 0.00 | 0.00 | 38 | 1007.4 |
| 20260504222136 | 73 | 225 | 2.0 | 4.0 | 0.00 | 0.00 | 0.00 | 39 | 1007.6 |
| 20260504221116 | 73 | 338 | 2.0 | 3.0 | 0.00 | 0.00 | 0.00 | 39 | 1007.6 |
| 20260504220116 | 74 | 135 | 3.0 | 6.0 | 0.00 | 0.00 | 0.00 | 38 | 1007.5 |
| 20260504215117 | 74 | 203 | 1.0 | 3.0 | 0.00 | 0.00 | 0.00 | 39 | 1007.5 |
| 20260504214116 | 74 | 135 | 3.0 | 5.0 | 0.00 | 0.00 | 0.00 | 38 | 1007.5 |
| 20260504213157 | 74 | 135 | 1.0 | 2.0 | 0.00 | 0.00 | 0.00 | 39 | 1007.5 |
| 20260504212117 | 74 | 225 | 1.0 | 2.0 | 0.00 | 0.00 | 0.00 | 38 | 1007.6 |
| 20260504211116 | 74 | 225 | 1.0 | 3.0 | 0.00 | 0.00 | 0.00 | 38 | 1007.5 |
| 20260504210116 | 74 | 158 | 5.0 | 9.0 | 0.00 | 0.00 | 0.00 | 36 | 1007.5 |
| 20260504205117 | 74 | 158 | 4.0 | 8.0 | 0.00 | 0.00 | 0.00 | 36 | 1007.6 |
| 20260504204116 | 74 | 180 | 2.0 | 5.0 | 0.00 | 0.00 | 0.00 | 33 | 1007.5 |
| 20260504203116 | 75 | 248 | 2.0 | 4.0 | 0.00 | 0.00 | 0.00 | 35 | 1007.5 |
| 20260504202153 | 74 | 203 | 1.0 | 2.0 | 0.00 | 0.00 | 0.00 | 36 | 1007.6 |
| 20260504201317 | 74 | 225 | 1.0 | 2.0 | 0.00 | 0.00 | 0.00 | 36 | 1007.8 |
| 20260504200337 | 74 | 135 | 5.0 | 9.0 | 0.00 | 0.00 | 0.00 | 35 | 1007.9 |
| 20260504195316 | 74 | 225 | 2.0 | 4.0 | 0.00 | 0.00 | 0.00 | 35 | 1008.2 |
| 20260504194336 | 74 | 248 | 5.0 | 8.0 | 0.00 | 0.00 | 0.00 | 34 | 1008.3 |
| 20260504193316 | 74 | 248 | 5.0 | 8.0 | 0.00 | 0.00 | 0.00 | 34 | 1008.6 |
| 20260504192316 | 74 | 225 | 3.0 | 8.0 | 0.00 | 0.00 | 0.00 | 35 | 1008.7 |
| 20260504191337 | 74 | 225 | 2.0 | 5.0 | 0.00 | 0.00 | 0.00 | 35 | 1008.7 |
| 20260504190317 | 74 | 248 | 7.0 | 10.0 | 0.00 | 0.00 | 0.00 | 34 | 1009.0 |
| 20260504185317 | 74 | 248 | 4.0 | 6.0 | 0.00 | 0.00 | 0.00 | 34 | 1009.2 |
| 20260504184316 | 74 | 248 | 6.0 | 9.0 | 0.00 | 0.00 | 0.00 | 34 | 1009.4 |
| 20260504183316 | 73 | 248 | 3.0 | 6.0 | 0.00 | 0.00 | 0.00 | 36 | 1009.5 |
| 20260504182317 | 73 | 248 | 3.0 | 6.0 | 0.00 | 0.00 | 0.00 | 36 | 1009.6 |
| 20260504181316 | 72 | 225 | 2.0 | 5.0 | 0.00 | 0.00 | 0.00 | 38 | 1009.9 |
| 20260504180317 | 72 | 293 | 4.0 | 9.0 | 0.00 | 0.00 | 0.00 | 36 | 1010.0 |
| 20260504175316 | 72 | 225 | 8.0 | 15.0 | 0.00 | 0.00 | 0.00 | 36 | 1010.2 |
| 20260504174337 | 71 | 270 | 2.0 | 5.0 | 0.00 | 0.00 | 0.00 | 36 | 1010.1 |
| 20260504173317 | 71 | 225 | 1.0 | 6.0 | 0.00 | 0.00 | 0.00 | 37 | 1010.3 |
| 20260504172316 | 72 | 315 | 3.0 | 6.0 | 0.00 | 0.00 | 0.00 | 36 | 1010.4 |
| 20260504171337 | 72 | 248 | 3.0 | 5.0 | 0.00 | 0.00 | 0.00 | 37 | 1010.6 |
| 20260504170317 | 72 | 270 | 1.0 | 3.0 | 0.00 | 0.00 | 0.00 | 37 | 1010.6 |
| 20260504160317 | 69 | 248 | 5.0 | 9.0 | 0.00 | 0.00 | 0.00 | 37 | 1011.6 |